Time,TemperatureF,DewpointF,PressureIn,WindDirection,WindDirectionDegrees,WindSpeedMPH,WindSpeedGustMPH,Humidity,HourlyPrecipIn,Conditions,Clouds,dailyrainin,SoftwareType,DateUTC
2013-06-21 00:01:00,63.0,55.9,30.14,SSW,205,0.0,1.0,78,0.00,,,0.00,meteohub,2013-06-21 04:01:00,
2013-06-21 00:06:00,63.0,55.6,30.13,SW,215,0.0,1.0,77,0.00,,,0.00,meteohub,2013-06-21 04:06:00,
2013-06-21 00:11:00,63.0,55.6,30.14,SW,216,0.0,1.0,77,0.00,,,0.00,meteohub,2013-06-21 04:11:00,
2013-06-21 00:16:00,62.8,56.5,30.14,SE,134,1.0,1.0,80,0.00,,,0.00,meteohub,2013-06-21 04:16:00,
2013-06-21 00:21:00,62.2,56.3,30.13,ESE,122,0.0,1.0,81,0.00,,,0.00,meteohub,2013-06-21 04:21:00,
2013-06-21 00:26:00,61.9,56.3,30.13,ESE,122,0.0,1.0,82,0.00,,,0.00,meteohub,2013-06-21 04:26:00,
2013-06-21 00:31:00,61.7,56.1,30.13,ESE,121,0.0,1.0,82,0.00,,,0.00,meteohub,2013-06-21 04:31:00,
2013-06-21 00:36:00,61.5,56.3,30.14,ESE,120,0.0,0.0,83,0.00,,,0.00,meteohub,2013-06-21 04:36:00,
2013-06-21 00:41:00,61.3,56.1,30.14,SE,127,2.0,2.0,83,0.00,,,0.00,meteohub,2013-06-21 04:41:00,
2013-06-21 00:46:00,61.2,56.3,30.14,SSE,155,1.0,3.0,84,0.00,,,0.00,meteohub,2013-06-21 04:46:00,
2013-06-21 00:51:00,61.2,56.3,30.14,SE,144,0.0,3.0,84,0.00,,,0.00,meteohub,2013-06-21 04:51:00,
2013-06-21 00:56:00,61.0,56.5,30.13,ESE,116,0.0,3.0,85,0.00,,,0.00,meteohub,2013-06-21 04:56:00,
2013-06-21 01:01:00,60.8,56.3,30.13,ESE,116,0.0,2.0,85,0.00,,,0.00,meteohub,2013-06-21 05:01:00,
2013-06-21 01:06:00,60.8,56.3,30.13,SE,130,0.0,1.0,85,0.00,,,0.00,meteohub,2013-06-21 05:06:00,
2013-06-21 01:12:00,61.0,56.5,30.13,East,84,1.0,2.0,85,0.00,,,0.00,meteohub,2013-06-21 05:12:00,
2013-06-21 01:17:00,61.3,56.1,30.13,SSW,202,1.0,2.0,83,0.00,,,0.00,meteohub,2013-06-21 05:17:00,
2013-06-21 01:22:00,61.3,56.1,30.13,West,271,0.0,2.0,83,0.00,,,0.00,meteohub,2013-06-21 05:22:00,
2013-06-21 01:27:00,61.2,55.9,30.14,SSE,157,1.0,2.0,83,0.00,,,0.00,meteohub,2013-06-21 05:27:00,
2013-06-21 01:32:00,61.0,56.1,30.13,ESE,116,1.0,2.0,84,0.00,,,0.00,meteohub,2013-06-21 05:32:00,
2013-06-21 01:37:00,61.2,56.3,30.13,South,182,1.0,3.0,84,0.00,,,0.00,meteohub,2013-06-21 05:37:00,
2013-06-21 01:42:00,61.2,56.3,30.13,ESE,106,2.0,3.0,84,0.00,,,0.00,meteohub,2013-06-21 05:42:00,
2013-06-21 01:47:00,61.2,56.3,30.13,ENE,58,0.0,3.0,84,0.00,,,0.00,meteohub,2013-06-21 05:47:00,
2013-06-21 01:52:00,61.2,56.3,30.13,SSW,202,1.0,3.0,84,0.00,,,0.00,meteohub,2013-06-21 05:52:00,
2013-06-21 01:57:00,61.9,56.7,30.12,West,259,1.0,3.0,83,0.00,,,0.00,meteohub,2013-06-21 05:57:00,
2013-06-21 02:02:00,62.2,56.7,30.12,ENE,73,3.0,3.0,82,0.00,,,0.00,meteohub,2013-06-21 06:02:00,
2013-06-21 02:07:00,62.6,56.7,30.12,East,84,3.0,4.0,81,0.00,,,0.00,meteohub,2013-06-21 06:07:00,
2013-06-21 02:11:00,62.4,56.8,30.12,SSW,200,1.0,4.0,82,0.00,,,0.00,meteohub,2013-06-21 06:11:00,
2013-06-21 02:17:00,62.4,56.5,30.12,South,188,4.0,4.0,81,0.00,,,0.00,meteohub,2013-06-21 06:17:00,
2013-06-21 02:22:00,62.4,56.5,30.12,ENE,72,2.0,5.0,81,0.00,,,0.00,meteohub,2013-06-21 06:22:00,
2013-06-21 02:27:00,62.4,56.5,30.12,ENE,78,1.0,5.0,81,0.00,,,0.00,meteohub,2013-06-21 06:27:00,
2013-06-21 02:32:00,62.4,56.8,30.12,ENE,68,2.0,5.0,82,0.00,,,0.00,meteohub,2013-06-21 06:32:00,
2013-06-21 02:37:00,62.6,57.0,30.12,SSE,148,0.0,3.0,82,0.00,,,0.00,meteohub,2013-06-21 06:37:00,
2013-06-21 02:42:00,62.8,56.8,30.12,East,79,0.0,2.0,81,0.00,,,0.00,meteohub,2013-06-21 06:42:00,
2013-06-21 02:47:00,62.8,56.5,30.12,East,82,0.0,2.0,80,0.00,,,0.00,meteohub,2013-06-21 06:47:00,
2013-06-21 02:52:00,63.0,57.4,30.12,ESE,119,0.0,1.0,82,0.00,,,0.00,meteohub,2013-06-21 06:52:00,
2013-06-21 02:57:00,62.8,56.8,30.12,ENE,71,0.0,2.0,81,0.00,,,0.00,meteohub,2013-06-21 06:57:00,
2013-06-21 03:02:00,62.6,56.7,30.12,SSE,156,0.0,2.0,81,0.00,,,0.00,meteohub,2013-06-21 07:02:00,
2013-06-21 03:07:00,62.4,56.5,30.12,SSE,158,0.0,2.0,81,0.00,,,0.00,meteohub,2013-06-21 07:07:00,
2013-06-21 03:12:00,62.4,56.5,30.11,SSE,168,0.0,1.0,81,0.00,,,0.00,meteohub,2013-06-21 07:12:00,
2013-06-21 03:17:00,62.2,56.3,30.11,SSE,155,0.0,1.0,81,0.00,,,0.00,meteohub,2013-06-21 07:17:00,
2013-06-21 03:22:00,62.2,56.3,30.11,SSE,155,0.0,1.0,81,0.00,,,0.00,meteohub,2013-06-21 07:22:00,
2013-06-21 03:27:00,62.2,56.3,30.11,SSE,155,0.0,1.0,81,0.00,,,0.00,meteohub,2013-06-21 07:27:00,
2013-06-21 03:32:00,62.2,56.7,30.10,SSE,155,0.0,0.0,82,0.00,,,0.00,meteohub,2013-06-21 07:32:00,
2013-06-21 03:37:00,62.8,57.2,30.10,NE,49,1.0,0.0,82,0.00,,,0.00,meteohub,2013-06-21 07:37:00,
2013-06-21 03:42:00,63.7,57.0,30.10,SSW,204,2.0,4.0,79,0.00,,,0.00,meteohub,2013-06-21 07:42:00,
2013-06-21 03:47:00,64.6,57.2,30.10,SSE,147,4.0,4.0,77,0.00,,,0.00,meteohub,2013-06-21 07:47:00,
2013-06-21 03:52:00,64.9,57.6,30.10,SSE,155,3.0,5.0,77,0.00,,,0.00,meteohub,2013-06-21 07:52:00,
2013-06-21 03:57:00,64.9,57.6,30.10,ENE,67,1.0,5.0,77,0.00,,,0.00,meteohub,2013-06-21 07:57:00,
2013-06-21 04:02:00,64.8,57.7,30.09,WSW,241,0.0,5.0,78,0.00,,,0.00,meteohub,2013-06-21 08:02:00,
2013-06-21 04:07:00,64.6,57.6,30.09,ESE,122,1.0,4.0,78,0.00,,,0.00,meteohub,2013-06-21 08:07:00,
2013-06-21 04:12:00,64.0,57.7,30.09,SSE,165,0.0,2.0,80,0.00,,,0.00,meteohub,2013-06-21 08:12:00,
2013-06-21 04:17:00,63.9,57.6,30.09,SW,214,1.0,2.0,80,0.00,,,0.00,meteohub,2013-06-21 08:17:00,
2013-06-21 04:22:00,64.0,57.4,30.09,SSW,195,0.0,4.0,79,0.00,,,0.00,meteohub,2013-06-21 08:22:00,
2013-06-21 04:27:00,64.0,57.4,30.09,East,87,1.0,4.0,79,0.00,,,0.00,meteohub,2013-06-21 08:27:00,
2013-06-21 04:32:00,64.0,57.4,30.09,ESE,109,1.0,4.0,79,0.00,,,0.00,meteohub,2013-06-21 08:32:00,
2013-06-21 04:37:00,64.2,57.2,30.09,SSW,213,1.0,2.0,78,0.00,,,0.00,meteohub,2013-06-21 08:37:00,
2013-06-21 04:42:00,64.4,57.0,30.09,East,82,1.0,4.0,77,0.00,,,0.00,meteohub,2013-06-21 08:42:00,
2013-06-21 04:47:00,64.4,57.0,30.09,ENE,66,1.0,4.0,77,0.00,,,0.00,meteohub,2013-06-21 08:47:00,
2013-06-21 04:52:00,64.4,57.0,30.09,SSW,203,0.0,5.0,77,0.00,,,0.00,meteohub,2013-06-21 08:52:00,
2013-06-21 04:57:00,64.2,57.2,30.09,ESE,117,1.0,5.0,78,0.00,,,0.00,meteohub,2013-06-21 08:57:00,
2013-06-21 05:02:00,64.0,57.0,30.09,NE,53,1.0,4.0,78,0.00,,,0.00,meteohub,2013-06-21 09:02:00,
2013-06-21 05:07:00,63.9,56.8,30.09,SSE,150,1.0,3.0,78,0.00,,,0.00,meteohub,2013-06-21 09:07:00,
2013-06-21 05:12:00,63.9,56.5,30.09,West,262,1.0,3.0,77,0.00,,,0.00,meteohub,2013-06-21 09:12:00,
2013-06-21 05:17:00,64.0,56.7,30.09,ESE,103,2.0,2.0,77,0.00,,,0.00,meteohub,2013-06-21 09:17:00,
2013-06-21 05:22:00,64.0,56.3,30.10,ENE,64,0.0,2.0,76,0.00,,,0.00,meteohub,2013-06-21 09:22:00,
2013-06-21 05:27:00,64.0,56.3,30.10,NE,56,1.0,2.0,76,0.00,,,0.00,meteohub,2013-06-21 09:27:00,
2013-06-21 05:32:00,64.0,56.7,30.10,WNW,287,0.0,2.0,77,0.00,,,0.00,meteohub,2013-06-21 09:32:00,
2013-06-21 05:37:00,63.9,56.5,30.09,SE,136,0.0,2.0,77,0.00,,,0.00,meteohub,2013-06-21 09:37:00,
2013-06-21 05:42:00,63.5,56.5,30.09,South,190,1.0,2.0,78,0.00,,,0.00,meteohub,2013-06-21 09:42:00,
2013-06-21 05:47:00,63.1,56.1,30.09,SE,140,1.0,2.0,78,0.00,,,0.00,meteohub,2013-06-21 09:47:00,
2013-06-21 05:52:00,63.1,56.1,30.09,SE,133,1.0,2.0,78,0.00,,,0.00,meteohub,2013-06-21 09:52:00,
2013-06-21 05:57:00,63.3,56.3,30.09,SE,127,2.0,2.0,78,0.00,,,0.00,meteohub,2013-06-21 09:57:00,
2013-06-21 06:02:00,63.5,56.5,30.09,NE,51,2.0,3.0,78,0.00,,,0.00,meteohub,2013-06-21 10:02:00,
2013-06-21 06:07:00,63.7,56.7,30.10,SE,141,1.0,4.0,78,0.00,,,0.00,meteohub,2013-06-21 10:07:00,
2013-06-21 06:12:00,63.5,56.5,30.10,ENE,66,0.0,4.0,78,0.00,,,0.00,meteohub,2013-06-21 10:12:00,
2013-06-21 06:17:00,63.3,56.3,30.09,ESE,114,1.0,7.0,78,0.00,,,0.00,meteohub,2013-06-21 10:17:00,
2013-06-21 06:22:00,63.3,56.3,30.09,ESE,109,0.0,7.0,78,0.00,,,0.00,meteohub,2013-06-21 10:22:00,
2013-06-21 06:27:00,63.3,56.3,30.09,South,182,1.0,7.0,78,0.00,,,0.00,meteohub,2013-06-21 10:27:00,
2013-06-21 06:32:00,63.7,56.7,30.09,SSW,204,0.0,3.0,78,0.00,,,0.00,meteohub,2013-06-21 10:32:00,
2013-06-21 06:37:00,63.9,56.5,30.09,ESE,122,2.0,3.0,77,0.00,,,0.00,meteohub,2013-06-21 10:37:00,
2013-06-21 06:42:00,64.2,56.8,30.09,South,174,0.0,3.0,77,0.00,,,0.00,meteohub,2013-06-21 10:42:00,
2013-06-21 06:46:00,64.8,56.7,30.10,SSE,152,0.0,4.0,75,0.00,,,0.00,meteohub,2013-06-21 10:46:00,
2013-06-21 06:52:00,64.9,56.8,30.10,SE,126,1.0,4.0,75,0.00,,,0.00,meteohub,2013-06-21 10:52:00,
2013-06-21 06:57:00,64.9,56.8,30.10,SSE,147,0.0,4.0,75,0.00,,,0.00,meteohub,2013-06-21 10:57:00,
2013-06-21 07:02:00,64.9,56.8,30.10,East,89,0.0,3.0,75,0.00,,,0.00,meteohub,2013-06-21 11:02:00,
2013-06-21 07:07:00,64.9,56.8,30.10,SW,216,0.0,3.0,75,0.00,,,0.00,meteohub,2013-06-21 11:07:00,
2013-06-21 07:12:00,64.9,56.5,30.10,East,92,0.0,3.0,74,0.00,,,0.00,meteohub,2013-06-21 11:12:00,
2013-06-21 07:17:00,64.9,56.8,30.10,SE,136,0.0,2.0,75,0.00,,,0.00,meteohub,2013-06-21 11:17:00,
2013-06-21 07:22:00,65.1,56.7,30.10,SSE,150,0.0,2.0,74,0.00,,,0.00,meteohub,2013-06-21 11:22:00,
2013-06-21 07:27:00,65.3,56.8,30.10,SSE,147,0.0,2.0,74,0.00,,,0.00,meteohub,2013-06-21 11:27:00,
2013-06-21 07:32:00,65.5,57.0,30.10,East,98,1.0,2.0,74,0.00,,,0.00,meteohub,2013-06-21 11:32:00,
2013-06-21 07:37:00,65.7,57.2,30.09,SE,130,0.0,2.0,74,0.00,,,0.00,meteohub,2013-06-21 11:37:00,
2013-06-21 07:42:00,65.8,57.4,30.09,South,172,1.0,1.0,74,0.00,,,0.00,meteohub,2013-06-21 11:42:00,
2013-06-21 07:47:00,66.0,56.7,30.09,ENE,75,0.0,2.0,72,0.00,,,0.00,meteohub,2013-06-21 11:47:00,
2013-06-21 07:52:00,66.6,56.8,30.09,SSW,203,1.0,5.0,71,0.00,,,0.00,meteohub,2013-06-21 11:52:00,
2013-06-21 07:57:00,66.9,56.8,30.10,SSE,151,1.0,5.0,70,0.00,,,0.00,meteohub,2013-06-21 11:57:00,
2013-06-21 08:02:00,67.3,56.8,30.10,SW,236,1.0,2.0,69,0.00,,,0.00,meteohub,2013-06-21 12:02:00,
2013-06-21 08:07:00,67.5,57.4,30.09,SSW,200,0.0,3.0,70,0.00,,,0.00,meteohub,2013-06-21 12:07:00,
2013-06-21 08:12:00,67.6,57.0,30.09,SSE,150,1.0,3.0,69,0.00,,,0.00,meteohub,2013-06-21 12:12:00,
2013-06-21 08:17:00,67.8,57.2,30.09,SSW,192,0.0,3.0,69,0.00,,,0.00,meteohub,2013-06-21 12:17:00,
2013-06-21 08:22:00,68.2,57.2,30.09,SSW,192,0.0,3.0,68,0.00,,,0.00,meteohub,2013-06-21 12:22:00,
2013-06-21 08:27:00,68.2,57.2,30.08,ENE,65,1.0,5.0,68,0.00,,,0.00,meteohub,2013-06-21 12:27:00,
2013-06-21 08:32:00,68.2,57.2,30.08,East,100,0.0,5.0,68,0.00,,,0.00,meteohub,2013-06-21 12:32:00,
2013-06-21 08:37:00,68.4,57.4,30.08,ESE,102,1.0,5.0,68,0.00,,,0.00,meteohub,2013-06-21 12:37:00,
2013-06-21 08:42:00,68.4,57.0,30.08,SSE,164,0.0,3.0,67,0.00,,,0.00,meteohub,2013-06-21 12:42:00,
2013-06-21 08:47:00,68.7,57.7,30.07,South,186,0.0,3.0,68,0.00,,,0.00,meteohub,2013-06-21 12:47:00,
2013-06-21 08:52:00,69.3,57.9,30.07,SSW,195,1.0,3.0,67,0.00,,,0.00,meteohub,2013-06-21 12:52:00,
2013-06-21 08:57:00,69.6,57.7,30.07,SE,143,0.0,3.0,66,0.00,,,0.00,meteohub,2013-06-21 12:57:00,
2013-06-21 09:01:00,70.2,57.9,30.06,East,83,0.0,3.0,65,0.00,,,0.00,meteohub,2013-06-21 13:01:00,
2013-06-21 09:06:00,70.7,58.3,30.06,SSE,155,0.0,3.0,65,0.00,,,0.00,meteohub,2013-06-21 13:06:00,
2013-06-21 09:12:00,71.4,58.1,30.06,South,169,0.0,3.0,63,0.00,,,0.00,meteohub,2013-06-21 13:12:00,
2013-06-21 09:17:00,72.0,58.3,30.07,SSE,165,0.0,3.0,62,0.00,,,0.00,meteohub,2013-06-21 13:17:00,
2013-06-21 09:22:00,72.5,57.7,30.07,ESE,109,0.0,3.0,60,0.00,,,0.00,meteohub,2013-06-21 13:22:00,
2013-06-21 09:27:00,72.9,58.6,30.07,South,181,0.0,3.0,61,0.00,,,0.00,meteohub,2013-06-21 13:27:00,
2013-06-21 09:32:00,73.2,58.5,30.07,East,85,1.0,3.0,60,0.00,,,0.00,meteohub,2013-06-21 13:32:00,
2013-06-21 09:37:00,73.8,59.0,30.07,SE,137,0.0,3.0,60,0.00,,,0.00,meteohub,2013-06-21 13:37:00,
2013-06-21 09:42:00,74.3,59.0,30.07,SE,129,0.0,1.0,59,0.00,,,0.00,meteohub,2013-06-21 13:42:00,
2013-06-21 09:47:00,74.7,59.4,30.07,ENE,68,0.0,1.0,59,0.00,,,0.00,meteohub,2013-06-21 13:47:00,
2013-06-21 09:52:00,75.2,59.4,30.07,SE,126,0.0,3.0,58,0.00,,,0.00,meteohub,2013-06-21 13:52:00,
2013-06-21 09:57:00,75.6,59.2,30.07,ENE,58,0.0,3.0,57,0.00,,,0.00,meteohub,2013-06-21 13:57:00,
2013-06-21 10:02:00,75.7,59.4,30.07,ESE,121,2.0,4.0,57,0.00,,,0.00,meteohub,2013-06-21 14:02:00,
2013-06-21 10:07:00,75.9,59.5,30.07,SSW,192,1.0,4.0,57,0.00,,,0.00,meteohub,2013-06-21 14:07:00,
2013-06-21 10:12:00,75.9,59.5,30.06,NE,54,2.0,5.0,57,0.00,,,0.00,meteohub,2013-06-21 14:12:00,
2013-06-21 10:16:00,76.3,60.4,30.06,ESE,122,1.0,5.0,58,0.00,,,0.00,meteohub,2013-06-21 14:16:00,
2013-06-21 10:22:00,76.5,60.1,30.06,NNE,26,1.0,5.0,57,0.00,,,0.00,meteohub,2013-06-21 14:22:00,
2013-06-21 10:27:00,76.6,59.7,30.05,ESE,107,2.0,6.0,56,0.00,,,0.00,meteohub,2013-06-21 14:27:00,
2013-06-21 10:32:00,76.6,60.3,30.05,SSW,193,1.0,6.0,57,0.00,,,0.00,meteohub,2013-06-21 14:32:00,
2013-06-21 10:37:00,76.6,60.3,30.04,SSE,162,2.0,7.0,57,0.00,,,0.00,meteohub,2013-06-21 14:37:00,
2013-06-21 10:42:00,76.8,59.9,30.05,South,176,2.0,7.0,56,0.00,,,0.00,meteohub,2013-06-21 14:42:00,
2013-06-21 10:47:00,76.6,60.3,30.05,East,100,1.0,8.0,57,0.00,,,0.00,meteohub,2013-06-21 14:47:00,
2013-06-21 10:52:00,76.8,60.4,30.05,SSE,164,3.0,8.0,57,0.00,,,0.00,meteohub,2013-06-21 14:52:00,
2013-06-21 10:57:00,76.8,60.4,30.06,SW,220,1.0,8.0,57,0.00,,,0.00,meteohub,2013-06-21 14:57:00,
2013-06-21 11:02:00,77.0,60.6,30.06,SW,219,3.0,8.0,57,0.00,,,0.00,meteohub,2013-06-21 15:02:00,
2013-06-21 11:07:00,77.0,60.6,30.06,NE,41,2.0,8.0,57,0.00,,,0.00,meteohub,2013-06-21 15:07:00,
2013-06-21 11:12:00,76.8,61.0,30.06,South,185,2.0,8.0,58,0.00,,,0.00,meteohub,2013-06-21 15:12:00,
2013-06-21 11:17:00,76.6,61.2,30.06,SW,230,2.0,8.0,59,0.00,,,0.00,meteohub,2013-06-21 15:17:00,
2013-06-21 11:22:00,76.6,61.2,30.06,ENE,68,3.0,8.0,59,0.00,,,0.00,meteohub,2013-06-21 15:22:00,
2013-06-21 11:27:00,76.8,61.9,30.06,ENE,57,1.0,8.0,60,0.00,,,0.00,meteohub,2013-06-21 15:27:00,
2013-06-21 11:32:00,77.0,62.1,30.06,South,183,1.0,6.0,60,0.00,,,0.00,meteohub,2013-06-21 15:32:00,
2013-06-21 11:37:00,77.2,62.2,30.05,East,79,1.0,6.0,60,0.00,,,0.00,meteohub,2013-06-21 15:37:00,
2013-06-21 11:42:00,77.2,62.2,30.05,South,181,3.0,6.0,60,0.00,,,0.00,meteohub,2013-06-21 15:42:00,
2013-06-21 11:47:00,77.7,63.1,30.05,WSW,257,2.0,6.0,61,0.00,,,0.00,meteohub,2013-06-21 15:47:00,
2013-06-21 11:52:00,78.3,63.7,30.05,NW,311,1.0,7.0,61,0.00,,,0.00,meteohub,2013-06-21 15:52:00,
2013-06-21 11:57:00,79.0,63.9,30.05,ENE,75,3.0,7.0,60,0.00,,,0.00,meteohub,2013-06-21 15:57:00,
2013-06-21 12:02:00,79.2,64.0,30.05,SW,235,2.0,7.0,60,0.00,,,0.00,meteohub,2013-06-21 16:02:00,
2013-06-21 12:07:00,79.3,64.2,30.05,ESE,116,1.0,8.0,60,0.00,,,0.00,meteohub,2013-06-21 16:07:00,
2013-06-21 12:12:00,79.9,64.8,30.05,WNW,300,0.0,8.0,60,0.00,,,0.00,meteohub,2013-06-21 16:12:00,
2013-06-21 12:17:00,80.1,64.4,30.05,East,96,3.0,8.0,59,0.00,,,0.00,meteohub,2013-06-21 16:17:00,
2013-06-21 12:22:00,80.2,65.1,30.05,ENE,72,1.0,8.0,60,0.00,,,0.00,meteohub,2013-06-21 16:22:00,
2013-06-21 12:27:00,80.4,64.8,30.04,ESE,106,2.0,8.0,59,0.00,,,0.00,meteohub,2013-06-21 16:27:00,
2013-06-21 12:32:00,80.4,65.3,30.04,NNE,32,2.0,7.0,60,0.00,,,0.00,meteohub,2013-06-21 16:32:00,
2013-06-21 12:37:00,80.8,65.7,30.04,East,95,2.0,9.0,60,0.00,,,0.00,meteohub,2013-06-21 16:37:00,
2013-06-21 12:42:00,80.8,65.7,30.04,NNW,343,2.0,9.0,60,0.00,,,0.00,meteohub,2013-06-21 16:42:00,
2013-06-21 12:47:00,81.0,65.8,30.03,NNE,29,3.0,7.0,60,0.00,,,0.00,meteohub,2013-06-21 16:47:00,
2013-06-21 12:52:00,81.0,65.8,30.03,SSW,209,1.0,8.0,60,0.00,,,0.00,meteohub,2013-06-21 16:52:00,
2013-06-21 12:57:00,81.0,65.8,30.02,SSE,150,3.0,8.0,60,0.00,,,0.00,meteohub,2013-06-21 16:57:00,
2013-06-21 13:02:00,80.8,66.0,30.02,ESE,115,2.0,9.0,61,0.00,,,0.00,meteohub,2013-06-21 17:02:00,
2013-06-21 13:07:00,81.0,65.8,30.02,ESE,115,6.0,9.0,60,0.00,,,0.00,meteohub,2013-06-21 17:07:00,
2013-06-21 13:12:00,81.1,66.0,30.02,East,84,3.0,9.0,60,0.00,,,0.00,meteohub,2013-06-21 17:12:00,
2013-06-21 13:17:00,81.3,65.7,30.02,SW,220,4.0,10.0,59,0.00,,,0.00,meteohub,2013-06-21 17:17:00,
2013-06-21 13:22:00,81.7,66.0,30.01,WSW,251,1.0,10.0,59,0.00,,,0.00,meteohub,2013-06-21 17:22:00,
2013-06-21 13:27:00,82.0,66.7,30.01,East,88,0.0,10.0,60,0.00,,,0.00,meteohub,2013-06-21 17:27:00,
2013-06-21 13:33:00,82.0,66.7,30.01,SW,216,1.0,8.0,60,0.00,,,0.00,meteohub,2013-06-21 17:33:00,
2013-06-21 13:39:00,82.4,66.6,30.00,SSW,211,2.0,8.0,59,0.00,,,0.00,meteohub,2013-06-21 17:39:00,
2013-06-21 13:45:00,82.2,65.5,30.01,SW,216,4.0,10.0,57,0.00,,,0.00,meteohub,2013-06-21 17:45:00,
2013-06-21 13:46:00,82.4,66.6,30.00,SE,144,3.0,11.0,59,0.00,,,0.00,meteohub,2013-06-21 17:46:00,
2013-06-21 13:47:00,82.4,66.2,30.00,East,88,3.0,11.0,58,0.00,,,0.00,meteohub,2013-06-21 17:47:00,
2013-06-21 13:52:00,82.2,66.4,30.00,SSE,152,2.0,11.0,59,0.00,,,0.00,meteohub,2013-06-21 17:52:00,
2013-06-21 13:57:00,82.4,66.6,30.00,SW,221,2.0,13.0,59,0.00,,,0.00,meteohub,2013-06-21 17:57:00,
2013-06-21 14:02:00,82.8,66.6,29.99,West,277,7.0,13.0,58,0.00,,,0.00,meteohub,2013-06-21 18:02:00,
2013-06-21 14:07:00,82.9,66.6,29.99,East,82,2.0,10.0,58,0.00,,,0.00,meteohub,2013-06-21 18:07:00,
2013-06-21 14:12:00,83.1,66.7,29.99,SSE,161,2.0,12.0,58,0.00,,,0.00,meteohub,2013-06-21 18:12:00,
2013-06-21 14:18:00,83.1,66.4,29.99,ESE,122,5.0,12.0,57,0.00,,,0.00,meteohub,2013-06-21 18:18:00,
2013-06-21 14:22:00,82.8,66.6,29.98,NNE,32,5.0,10.0,58,0.00,,,0.00,meteohub,2013-06-21 18:22:00,
2013-06-21 14:23:00,82.8,66.6,29.98,ESE,117,4.0,10.0,58,0.00,,,0.00,meteohub,2013-06-21 18:23:00,
2013-06-21 14:24:00,82.8,66.6,29.98,ESE,116,3.0,10.0,58,0.00,,,0.00,meteohub,2013-06-21 18:24:00,
2013-06-21 14:29:00,82.8,66.0,29.98,SE,134,3.0,11.0,57,0.00,,,0.00,meteohub,2013-06-21 18:29:00,
2013-06-21 14:34:00,82.4,66.2,29.98,NE,41,2.0,11.0,58,0.00,,,0.00,meteohub,2013-06-21 18:34:00,
2013-06-21 14:39:00,82.2,66.0,29.97,SSW,205,6.0,10.0,58,0.00,,,0.00,meteohub,2013-06-21 18:39:00,
2013-06-21 14:45:00,82.4,66.2,29.96,NNE,32,3.0,10.0,58,0.00,,,0.00,meteohub,2013-06-21 18:45:00,
2013-06-21 14:47:00,82.6,65.8,29.96,ESE,105,11.0,11.0,57,0.00,,,0.00,meteohub,2013-06-21 18:47:00,
2013-06-21 14:52:00,82.8,64.9,29.96,WSW,240,2.0,16.0,55,0.00,,,0.00,meteohub,2013-06-21 18:52:00,
2013-06-21 14:57:00,82.8,64.4,29.95,SSE,159,4.0,16.0,54,0.00,,,0.00,meteohub,2013-06-21 18:57:00,
2013-06-21 15:00:00,82.6,63.7,29.95,WSW,257,2.0,17.0,53,0.00,,,0.00,meteohub,2013-06-21 19:00:00,
2013-06-21 15:07:00,82.4,64.0,29.94,ESE,112,5.0,17.0,54,0.00,,,0.00,meteohub,2013-06-21 19:07:00,
2013-06-21 15:12:00,82.0,63.7,29.94,South,169,2.0,13.0,54,0.00,,,0.00,meteohub,2013-06-21 19:12:00,
2013-06-21 15:18:00,81.9,63.5,29.94,SSE,159,10.0,13.0,54,0.00,,,0.00,meteohub,2013-06-21 19:18:00,
2013-06-21 15:20:00,81.7,63.5,29.94,WSW,250,2.0,13.0,54,0.00,,,0.00,meteohub,2013-06-21 19:20:00,
2013-06-21 15:25:00,81.5,63.3,29.95,ESE,109,0.0,12.0,54,0.00,,,0.00,meteohub,2013-06-21 19:25:00,
2013-06-21 15:30:00,81.5,63.9,29.95,South,183,4.0,10.0,55,0.00,,,0.00,meteohub,2013-06-21 19:30:00,
2013-06-21 15:35:00,81.5,63.9,29.94,ESE,112,6.0,6.0,55,0.00,,,0.00,meteohub,2013-06-21 19:35:00,
2013-06-21 15:40:00,81.3,63.7,29.94,SSW,211,2.0,10.0,55,0.00,,,0.00,meteohub,2013-06-21 19:40:00,
2013-06-21 15:42:00,81.1,64.0,29.94,East,89,3.0,10.0,56,0.00,,,0.00,meteohub,2013-06-21 19:42:00,
2013-06-21 15:46:00,81.1,64.0,29.94,ENE,78,5.0,11.0,56,0.00,,,0.00,meteohub,2013-06-21 19:46:00,
2013-06-21 15:51:00,81.1,64.0,29.94,South,179,4.0,11.0,56,0.00,,,0.00,meteohub,2013-06-21 19:51:00,
2013-06-21 15:57:00,81.1,64.0,29.94,SSW,201,2.0,11.0,56,0.00,,,0.00,meteohub,2013-06-21 19:57:00,
2013-06-21 16:02:00,81.1,64.4,29.94,ENE,70,2.0,13.0,57,0.00,,,0.00,meteohub,2013-06-21 20:02:00,
2013-06-21 16:04:00,81.1,64.4,29.94,SSW,195,1.0,13.0,57,0.00,,,0.00,meteohub,2013-06-21 20:04:00,
2013-06-21 16:08:00,81.0,64.2,29.94,SW,226,3.0,13.0,57,0.00,,,0.00,meteohub,2013-06-21 20:08:00,
2013-06-21 16:11:00,81.0,63.9,29.94,SE,142,3.0,9.0,56,0.00,,,0.00,meteohub,2013-06-21 20:11:00,
2013-06-21 16:13:00,81.0,64.2,29.94,SSE,155,2.0,9.0,57,0.00,,,0.00,meteohub,2013-06-21 20:13:00,
2013-06-21 16:19:00,81.1,64.4,29.94,WSW,247,2.0,9.0,57,0.00,,,0.00,meteohub,2013-06-21 20:19:00,
2013-06-21 16:24:00,81.5,64.8,29.93,East,95,3.0,9.0,57,0.00,,,0.00,meteohub,2013-06-21 20:24:00,
2013-06-21 16:29:00,81.9,65.1,29.93,SE,137,3.0,8.0,57,0.00,,,0.00,meteohub,2013-06-21 20:29:00,
2013-06-21 16:34:00,82.0,65.3,29.93,ESE,108,3.0,8.0,57,0.00,,,0.00,meteohub,2013-06-21 20:34:00,
2013-06-21 16:39:00,82.6,65.8,29.93,WSW,237,1.0,6.0,57,0.00,,,0.00,meteohub,2013-06-21 20:39:00,
2013-06-21 16:44:00,83.1,65.8,29.93,SSE,162,5.0,7.0,56,0.00,,,0.00,meteohub,2013-06-21 20:44:00,
2013-06-21 16:49:00,83.8,66.0,29.93,East,87,3.0,9.0,55,0.00,,,0.00,meteohub,2013-06-21 20:49:00,
2013-06-21 16:54:00,84.7,64.6,29.92,West,266,2.0,10.0,51,0.00,,,0.00,meteohub,2013-06-21 20:54:00,
2013-06-21 16:59:00,85.1,64.4,29.91,ESE,122,9.0,10.0,50,0.00,,,0.00,meteohub,2013-06-21 20:59:00,
2013-06-21 17:04:00,85.5,64.0,29.91,WSW,238,10.0,12.0,49,0.00,,,0.00,meteohub,2013-06-21 21:04:00,
2013-06-21 17:09:00,85.5,63.5,29.91,SW,235,6.0,12.0,48,0.00,,,0.00,meteohub,2013-06-21 21:09:00,
2013-06-21 17:14:00,85.6,63.7,29.91,South,177,6.0,14.0,48,0.00,,,0.00,meteohub,2013-06-21 21:14:00,
2013-06-21 17:19:00,85.8,63.9,29.91,ENE,64,3.0,14.0,48,0.00,,,0.00,meteohub,2013-06-21 21:19:00,
2013-06-21 17:24:00,86.2,63.5,29.91,West,264,3.0,14.0,47,0.00,,,0.00,meteohub,2013-06-21 21:24:00,
2013-06-21 17:29:00,85.6,63.1,29.91,East,95,10.0,13.0,47,0.00,,,0.00,meteohub,2013-06-21 21:29:00,
2013-06-21 17:34:00,84.9,63.0,29.91,North,7,4.0,16.0,48,0.00,,,0.00,meteohub,2013-06-21 21:34:00,
2013-06-21 17:39:00,84.4,63.1,29.91,SSW,205,1.0,16.0,49,0.00,,,0.00,meteohub,2013-06-21 21:39:00,
2013-06-21 17:40:00,84.4,63.1,29.91,WSW,244,2.0,16.0,49,0.00,,,0.00,meteohub,2013-06-21 21:40:00,
2013-06-21 17:47:00,84.6,63.9,29.91,ENE,65,4.0,15.0,50,0.00,,,0.00,meteohub,2013-06-21 21:47:00,
2013-06-21 17:55:00,84.6,63.3,29.91,East,100,5.0,13.0,49,0.00,,,0.00,meteohub,2013-06-21 21:55:00,
2013-06-21 18:00:00,84.0,63.9,29.91,East,85,1.0,13.0,51,0.00,,,0.00,meteohub,2013-06-21 22:00:00,
2013-06-21 18:05:00,83.8,63.9,29.91,SSE,162,3.0,13.0,51,0.00,,,0.00,meteohub,2013-06-21 22:05:00,
2013-06-21 18:10:00,83.5,63.5,29.91,SW,233,8.0,13.0,51,0.00,,,0.00,meteohub,2013-06-21 22:10:00,
2013-06-21 18:15:00,83.1,63.7,29.91,SE,133,3.0,13.0,52,0.00,,,0.00,meteohub,2013-06-21 22:15:00,
2013-06-21 18:20:00,83.1,63.7,29.90,SSW,209,5.0,13.0,52,0.00,,,0.00,meteohub,2013-06-21 22:20:00,
2013-06-21 18:25:00,82.9,63.5,29.90,SW,224,1.0,11.0,52,0.00,,,0.00,meteohub,2013-06-21 22:25:00,
2013-06-21 18:30:00,82.8,63.3,29.90,ESE,122,2.0,10.0,52,0.00,,,0.00,meteohub,2013-06-21 22:30:00,
2013-06-21 18:35:00,82.8,63.9,29.90,ESE,122,2.0,10.0,53,0.00,,,0.00,meteohub,2013-06-21 22:35:00,
2013-06-21 18:40:00,82.6,63.7,29.90,SW,228,5.0,10.0,53,0.00,,,0.00,meteohub,2013-06-21 22:40:00,
2013-06-21 18:45:00,82.4,63.5,29.90,NE,51,2.0,10.0,53,0.00,,,0.00,meteohub,2013-06-21 22:45:00,
2013-06-21 18:50:00,82.2,63.9,29.90,South,177,2.0,10.0,54,0.00,,,0.00,meteohub,2013-06-21 22:50:00,
2013-06-21 18:55:00,82.2,64.4,29.90,WSW,249,1.0,10.0,55,0.00,,,0.00,meteohub,2013-06-21 22:55:00,
2013-06-21 19:00:00,82.2,64.4,29.90,SSW,205,0.0,10.0,55,0.00,,,0.00,meteohub,2013-06-21 23:00:00,
2013-06-21 19:06:00,82.6,64.2,29.90,South,187,0.0,8.0,54,0.00,,,0.00,meteohub,2013-06-21 23:06:00,
2013-06-21 19:11:00,82.4,64.6,29.89,SE,141,2.0,7.0,55,0.00,,,0.00,meteohub,2013-06-21 23:11:00,
2013-06-21 19:16:00,82.0,64.8,29.89,NW,310,7.0,7.0,56,0.00,,,0.00,meteohub,2013-06-21 23:16:00,
2013-06-21 19:21:00,82.0,65.3,29.89,NNW,346,4.0,7.0,57,0.00,,,0.00,meteohub,2013-06-21 23:21:00,
2013-06-21 19:26:00,82.0,65.3,29.89,NE,39,2.0,7.0,57,0.00,,,0.00,meteohub,2013-06-21 23:26:00,
2013-06-21 19:31:00,82.0,64.8,29.89,East,85,3.0,7.0,56,0.00,,,0.00,meteohub,2013-06-21 23:31:00,
2013-06-21 19:36:00,82.2,64.9,29.89,ENE,73,4.0,6.0,56,0.00,,,0.00,meteohub,2013-06-21 23:36:00,
2013-06-21 19:41:00,82.0,64.8,29.89,NNE,24,1.0,8.0,56,0.00,,,0.00,meteohub,2013-06-21 23:41:00,
2013-06-21 19:46:00,81.9,65.1,29.88,South,174,1.0,8.0,57,0.00,,,0.00,meteohub,2013-06-21 23:46:00,
2013-06-21 19:51:00,81.7,64.4,29.88,East,83,2.0,9.0,56,0.00,,,0.00,meteohub,2013-06-21 23:51:00,
2013-06-21 19:56:00,81.7,64.4,29.88,NE,48,4.0,9.0,56,0.00,,,0.00,meteohub,2013-06-21 23:56:00,
2013-06-21 20:01:00,81.9,64.6,29.89,WNW,302,1.0,9.0,56,0.00,,,0.00,meteohub,2013-06-22 00:01:00,
2013-06-21 20:06:00,82.2,64.4,29.89,SE,144,2.0,6.0,55,0.00,,,0.00,meteohub,2013-06-22 00:06:00,
2013-06-21 20:11:00,82.8,64.9,29.89,SSE,164,1.0,10.0,55,0.00,,,0.00,meteohub,2013-06-22 00:11:00,
2013-06-21 20:16:00,82.9,65.1,29.89,ENE,67,2.0,10.0,55,0.00,,,0.00,meteohub,2013-06-22 00:16:00,
2013-06-21 20:21:00,83.3,65.5,29.89,ESE,108,1.0,10.0,55,0.00,,,0.00,meteohub,2013-06-22 00:21:00,
2013-06-21 20:26:00,83.5,65.1,29.89,SSW,202,1.0,5.0,54,0.00,,,0.00,meteohub,2013-06-22 00:26:00,
2013-06-21 20:31:00,83.3,65.5,29.90,NNW,335,3.0,8.0,55,0.00,,,0.00,meteohub,2013-06-22 00:31:00,
2013-06-21 20:36:00,82.8,64.4,29.90,South,182,6.0,14.0,54,0.00,,,0.00,meteohub,2013-06-22 00:36:00,
2013-06-21 20:41:00,82.2,63.9,29.90,NNE,15,6.0,15.0,54,0.00,,,0.00,meteohub,2013-06-22 00:41:00,
2013-06-21 20:46:00,81.9,63.5,29.91,ENE,62,4.0,15.0,54,0.00,,,0.00,meteohub,2013-06-22 00:46:00,
2013-06-21 20:51:00,81.3,63.7,29.91,West,277,6.0,15.0,55,0.00,,,0.00,meteohub,2013-06-22 00:51:00,
2013-06-21 20:56:00,81.0,63.3,29.90,SSW,202,3.0,8.0,55,0.00,,,0.00,meteohub,2013-06-22 00:56:00,
2013-06-21 21:01:00,80.4,62.8,29.91,East,88,7.0,9.0,55,0.00,,,0.00,meteohub,2013-06-22 01:01:00,
2013-06-21 21:06:00,80.2,62.6,29.90,East,88,1.0,9.0,55,0.00,,,0.00,meteohub,2013-06-22 01:06:00,
2013-06-21 21:11:00,80.1,63.0,29.90,East,90,3.0,8.0,56,0.00,,,0.00,meteohub,2013-06-22 01:11:00,
2013-06-21 21:16:00,79.9,62.8,29.90,North,1,0.0,8.0,56,0.00,,,0.00,meteohub,2013-06-22 01:16:00,
2013-06-21 21:21:00,79.5,62.4,29.90,NNE,17,1.0,4.0,56,0.00,,,0.00,meteohub,2013-06-22 01:21:00,
2013-06-21 21:26:00,79.3,62.8,29.91,South,172,0.0,4.0,57,0.00,,,0.00,meteohub,2013-06-22 01:26:00,
2013-06-21 21:31:00,79.2,62.6,29.91,WNW,302,1.0,5.0,57,0.00,,,0.00,meteohub,2013-06-22 01:31:00,
2013-06-21 21:36:00,78.6,62.6,29.91,WNW,282,1.0,7.0,58,0.00,,,0.00,meteohub,2013-06-22 01:36:00,
2013-06-21 21:41:00,78.3,62.8,29.92,SSW,193,1.0,7.0,59,0.00,,,0.00,meteohub,2013-06-22 01:41:00,
2013-06-21 21:46:00,77.7,63.1,29.92,NNW,345,1.0,8.0,61,0.00,,,0.00,meteohub,2013-06-22 01:46:00,
2013-06-21 21:51:00,77.2,63.1,29.92,West,279,5.0,8.0,62,0.00,,,0.00,meteohub,2013-06-22 01:51:00,
2013-06-21 21:56:00,76.6,62.6,29.92,WNW,295,3.0,8.0,62,0.00,,,0.00,meteohub,2013-06-22 01:56:00,
2013-06-21 22:01:00,76.3,62.2,29.93,NNE,28,2.0,8.0,62,0.00,,,0.00,meteohub,2013-06-22 02:01:00,
2013-06-21 22:06:00,75.7,62.2,29.93,NNW,336,2.0,7.0,63,0.00,,,0.00,meteohub,2013-06-22 02:06:00,
2013-06-21 22:11:00,75.6,62.1,29.93,NE,41,2.0,6.0,63,0.00,,,0.00,meteohub,2013-06-22 02:11:00,
2013-06-21 22:16:00,75.2,61.7,29.94,North,7,1.0,4.0,63,0.00,,,0.00,meteohub,2013-06-22 02:16:00,
2013-06-21 22:21:00,74.8,61.9,29.94,NNW,340,2.0,6.0,64,0.00,,,0.00,meteohub,2013-06-22 02:21:00,
2013-06-21 22:26:00,74.7,62.1,29.94,NNE,29,5.0,6.0,65,0.00,,,0.00,meteohub,2013-06-22 02:26:00,
2013-06-21 22:31:00,74.3,61.7,29.94,North,356,0.0,7.0,65,0.00,,,0.00,meteohub,2013-06-22 02:31:00,
2013-06-21 22:36:00,74.1,61.5,29.94,SSW,205,0.0,7.0,65,0.00,,,0.00,meteohub,2013-06-22 02:36:00,
2013-06-21 22:41:00,74.1,62.1,29.94,NNW,332,0.0,7.0,66,0.00,,,0.00,meteohub,2013-06-22 02:41:00,
2013-06-21 22:46:00,73.9,61.9,29.95,WSW,242,2.0,5.0,66,0.00,,,0.00,meteohub,2013-06-22 02:46:00,
2013-06-21 22:51:00,73.9,61.9,29.94,East,93,1.0,6.0,66,0.00,,,0.00,meteohub,2013-06-22 02:51:00,
2013-06-21 22:56:00,74.1,62.1,29.95,NE,51,1.0,6.0,66,0.00,,,0.00,meteohub,2013-06-22 02:56:00,
2013-06-21 23:01:00,74.1,61.5,29.95,West,271,1.0,6.0,65,0.00,,,0.00,meteohub,2013-06-22 03:01:00,
2013-06-21 23:07:00,74.1,62.1,29.94,NE,43,0.0,5.0,66,0.00,,,0.00,meteohub,2013-06-22 03:07:00,
2013-06-21 23:12:00,74.1,62.1,29.94,East,84,1.0,7.0,66,0.00,,,0.00,meteohub,2013-06-22 03:12:00,
2013-06-21 23:17:00,74.1,62.1,29.95,West,273,1.0,7.0,66,0.00,,,0.00,meteohub,2013-06-22 03:17:00,
2013-06-21 23:22:00,74.1,62.4,29.94,North,356,1.0,5.0,67,0.00,,,0.00,meteohub,2013-06-22 03:22:00,
2013-06-21 23:27:00,74.1,62.4,29.94,NNE,20,3.0,4.0,67,0.00,,,0.00,meteohub,2013-06-22 03:27:00,
2013-06-21 23:32:00,74.1,62.4,29.94,North,353,0.0,7.0,67,0.00,,,0.00,meteohub,2013-06-22 03:32:00,
2013-06-21 23:37:00,73.9,62.8,29.94,South,186,3.0,7.0,68,0.00,,,0.00,meteohub,2013-06-22 03:37:00,
2013-06-21 23:42:00,73.9,62.8,29.94,East,80,1.0,7.0,68,0.00,,,0.00,meteohub,2013-06-22 03:42:00,
2013-06-21 23:47:00,73.8,62.6,29.94,WNW,292,0.0,5.0,68,0.00,,,0.00,meteohub,2013-06-22 03:47:00,
2013-06-21 23:52:00,73.8,62.6,29.94,NNW,343,2.0,5.0,68,0.00,,,0.00,meteohub,2013-06-22 03:52:00,
2013-06-21 23:57:00,73.4,62.6,29.93,WNW,288,1.0,5.0,69,0.00,,,0.00,meteohub,2013-06-22 03:57:00,